Flag for Germany Weather past 2 weeks in Neuruppin, Brandenburg, Germany

Now
61 °F

Passing clouds.


Feels Like: 61 °F
Forecast: 55 / 73 °F
Wind: 2 mph from Northeast

Location: Neuruppin

Current Time: Sep 17, 2014 at 2:02:01 AM

Latest Report: Sep 17, 2014 at 1:00 AM


Visibility: 6 mi

Pressure: 30.11 "Hg

Humidity: 79%

Dew point: 54 °F

Location of NeuruppinLocation

Historic Weather in Neuruppin — Graph

°F

Neuruppin temperature yesterday

Maximum temperature yesterday: 75 °F (at 4:00 PM)
Minimum temperature yesterday: 58 °F (at 7:00 AM)
Average temperature yesterday: 66 °F

Past Weeks' High & Low Weather Summary

 TemperatureHumidityPressure
High78 °F (Sep 7, 4:00 PM)98% (Sep 14, 7:00 AM)30.33 "Hg (Sep 14, 7:00 AM)
Low50 °F (Sep 9, 4:00 AM)48% (Sep 6, 3:00 PM)29.87 "Hg (Sep 6, 6:00 PM)
Average63 °F80%30.08 "Hg
* Reported Sep 2 1:00 AM — Sep 17 1:00 AM, Neuruppin, Weather by CustomWeather, © 2014

Note: Actual official high and low records may vary slightly from our data, if they occured in-between our weather recording intervals... More about our weather records

Advertising

Neuruppin weather history for previous 24 hours

 ConditionsComfort  
Time TempWeatherWind HumidityBarometerVisibility
1:00 AM
Sep 17
61 °FPassing clouds.2 mph79%30.11 "Hg6 mi
12:00 AM62 °FClear.2 mph79%30.11 "Hg6 mi
11:00 PM
Sep 16
64 °FClear.3 mph75%30.10 "Hg6 mi
10:00 PM64 °FClear.2 mph73%30.11 "Hg6 mi
9:00 PM66 °FClear.2 mph69%30.10 "Hg6 mi
8:00 PM67 °FClear.2 mph66%30.08 "Hg6 mi
7:00 PM70 °FSunny.3 mph61%30.07 "Hg6 mi
6:00 PM72 °FSunny.5 mph59%30.07 "Hg6 mi
5:00 PM74 °FSunny.6 mph53%30.07 "Hg6 mi
4:00 PM75 °FOvercast.7 mph50%30.08 "Hg6 mi
3:00 PM73 °FOvercast.5 mph56%30.09 "Hg6 mi
2:00 PM73 °FSunny.7 mph57%30.10 "Hg6 mi
1:00 PM72 °FSunny.5 mph60%30.12 "Hg6 mi
12:00 PM69 °FSunny.2 mph66%30.12 "Hg6 mi
11:00 AM66 °FScattered clouds.3 mph72%30.13 "Hg6 mi
10:00 AM64 °FOvercast.2 mph76%30.13 "Hg6 mi
9:00 AM60 °FPartly sunny.3 mph82%30.13 "Hg6 mi
8:00 AM59 °FSunny.3 mph85%30.12 "Hg6 mi
7:00 AM58 °FSunny.2 mph85%30.12 "Hg6 mi
6:00 AM59 °FClear.3 mph82%30.11 "Hg6 mi
4:00 AM59 °FClear.2 mph81%30.12 "Hg6 mi
3:00 AM60 °FClear.2 mph79%30.12 "Hg6 mi
2:00 AM61 °FClear.2 mph76%30.11 "Hg6 mi
Weather by CustomWeather, © 2014

See weather overviewHow to use our weather pages